Index of /20260430/WXO-DD/model_gdps/15km/00/174
Name Last modified Size Description
Parent Directory -
20260430T00Z_MSC_GDPS_AbsoluteVorticity_IsbL-0200_LatLon0.15_PT174H.grib2 2026-04-30 04:36 1.5M
20260430T00Z_MSC_GDPS_AbsoluteVorticity_IsbL-0250_LatLon0.15_PT174H.grib2 2026-04-30 04:36 1.3M
20260430T00Z_MSC_GDPS_AbsoluteVorticity_IsbL-0500_LatLon0.15_PT174H.grib2 2026-04-30 04:36 1.5M
20260430T00Z_MSC_GDPS_AbsoluteVorticity_IsbL-0700_LatLon0.15_PT174H.grib2 2026-04-30 04:36 1.3M
20260430T00Z_MSC_GDPS_AbsoluteVorticity_IsbL-0850_LatLon0.15_PT174H.grib2 2026-04-30 04:36 1.6M
20260430T00Z_MSC_GDPS_AirTemp-Max_AGL-2m_LatLon0.15_PT174H.grib2 2026-04-30 04:36 740K
20260430T00Z_MSC_GDPS_AirTemp-Min_AGL-2m_LatLon0.15_PT174H.grib2 2026-04-30 04:36 784K
20260430T00Z_MSC_GDPS_AirTemp_AGL-120m_LatLon0.15_PT174H.grib2 2026-04-30 04:36 900K
20260430T00Z_MSC_GDPS_AirTemp_AGL-2m_LatLon0.15_PT174H.grib2 2026-04-30 04:36 1.0M
20260430T00Z_MSC_GDPS_AirTemp_AGL-40m_LatLon0.15_PT174H.grib2 2026-04-30 04:36 920K
20260430T00Z_MSC_GDPS_AirTemp_AGL-80m_LatLon0.15_PT174H.grib2 2026-04-30 04:36 909K
20260430T00Z_MSC_GDPS_AirTemp_IsbL-0001_LatLon0.15_PT174H.grib2 2026-04-30 04:36 662K
20260430T00Z_MSC_GDPS_AirTemp_IsbL-0005_LatLon0.15_PT174H.grib2 2026-04-30 04:36 689K
20260430T00Z_MSC_GDPS_AirTemp_IsbL-0010_LatLon0.15_PT174H.grib2 2026-04-30 04:36 689K
20260430T00Z_MSC_GDPS_AirTemp_IsbL-0020_LatLon0.15_PT174H.grib2 2026-04-30 04:36 783K
20260430T00Z_MSC_GDPS_AirTemp_IsbL-0030_LatLon0.15_PT174H.grib2 2026-04-30 04:36 749K
20260430T00Z_MSC_GDPS_AirTemp_IsbL-0050_LatLon0.15_PT174H.grib2 2026-04-30 04:36 799K
20260430T00Z_MSC_GDPS_AirTemp_IsbL-0100_LatLon0.15_PT174H.grib2 2026-04-30 04:36 959K
20260430T00Z_MSC_GDPS_AirTemp_IsbL-0150_LatLon0.15_PT174H.grib2 2026-04-30 04:36 958K
20260430T00Z_MSC_GDPS_AirTemp_IsbL-0175_LatLon0.15_PT174H.grib2 2026-04-30 04:36 959K
20260430T00Z_MSC_GDPS_AirTemp_IsbL-0200_LatLon0.15_PT174H.grib2 2026-04-30 04:36 1.0M
20260430T00Z_MSC_GDPS_AirTemp_IsbL-0225_LatLon0.15_PT174H.grib2 2026-04-30 04:36 1.0M
20260430T00Z_MSC_GDPS_AirTemp_IsbL-0250_LatLon0.15_PT174H.grib2 2026-04-30 04:36 1.0M
20260430T00Z_MSC_GDPS_AirTemp_IsbL-0275_LatLon0.15_PT174H.grib2 2026-04-30 04:36 1.0M
20260430T00Z_MSC_GDPS_AirTemp_IsbL-0300_LatLon0.15_PT174H.grib2 2026-04-30 04:36 942K
20260430T00Z_MSC_GDPS_AirTemp_IsbL-0350_LatLon0.15_PT174H.grib2 2026-04-30 04:36 924K
20260430T00Z_MSC_GDPS_AirTemp_IsbL-0400_LatLon0.15_PT174H.grib2 2026-04-30 04:36 941K
20260430T00Z_MSC_GDPS_AirTemp_IsbL-0450_LatLon0.15_PT174H.grib2 2026-04-30 04:36 964K
20260430T00Z_MSC_GDPS_AirTemp_IsbL-0500_LatLon0.15_PT174H.grib2 2026-04-30 04:36 1.0M
20260430T00Z_MSC_GDPS_AirTemp_IsbL-0550_LatLon0.15_PT174H.grib2 2026-04-30 04:36 1.0M
20260430T00Z_MSC_GDPS_AirTemp_IsbL-0600_LatLon0.15_PT174H.grib2 2026-04-30 04:36 884K
20260430T00Z_MSC_GDPS_AirTemp_IsbL-0650_LatLon0.15_PT174H.grib2 2026-04-30 04:36 911K
20260430T00Z_MSC_GDPS_AirTemp_IsbL-0700_LatLon0.15_PT174H.grib2 2026-04-30 04:36 954K
20260430T00Z_MSC_GDPS_AirTemp_IsbL-0750_LatLon0.15_PT174H.grib2 2026-04-30 04:36 1.0M
20260430T00Z_MSC_GDPS_AirTemp_IsbL-0800_LatLon0.15_PT174H.grib2 2026-04-30 04:36 1.1M
20260430T00Z_MSC_GDPS_AirTemp_IsbL-0850_LatLon0.15_PT174H.grib2 2026-04-30 04:36 1.1M
20260430T00Z_MSC_GDPS_AirTemp_IsbL-0875_LatLon0.15_PT174H.grib2 2026-04-30 04:36 1.2M
20260430T00Z_MSC_GDPS_AirTemp_IsbL-0900_LatLon0.15_PT174H.grib2 2026-04-30 04:36 1.2M
20260430T00Z_MSC_GDPS_AirTemp_IsbL-0925_LatLon0.15_PT174H.grib2 2026-04-30 04:36 1.1M
20260430T00Z_MSC_GDPS_AirTemp_IsbL-0950_LatLon0.15_PT174H.grib2 2026-04-30 04:36 1.1M
20260430T00Z_MSC_GDPS_AirTemp_IsbL-0970_LatLon0.15_PT174H.grib2 2026-04-30 04:36 1.1M
20260430T00Z_MSC_GDPS_AirTemp_IsbL-0985_LatLon0.15_PT174H.grib2 2026-04-30 04:36 1.1M
20260430T00Z_MSC_GDPS_AirTemp_IsbL-1000_LatLon0.15_PT174H.grib2 2026-04-30 04:36 1.1M
20260430T00Z_MSC_GDPS_AirTemp_IsbL-1015_LatLon0.15_PT174H.grib2 2026-04-30 04:36 1.1M
20260430T00Z_MSC_GDPS_Albedo_Sfc_LatLon0.15_PT174H.grib2 2026-04-30 04:36 244K
20260430T00Z_MSC_GDPS_CAPE_Sfc_LatLon0.15_PT174H.grib2 2026-04-30 04:36 3.8M
20260430T00Z_MSC_GDPS_CIN_Sfc_LatLon0.15_PT174H.grib2 2026-04-30 04:36 2.9M
20260430T00Z_MSC_GDPS_CloudWater_EAtm_LatLon0.15_PT174H.grib2 2026-04-30 04:36 536K
20260430T00Z_MSC_GDPS_ConvectivePrecip-Accum_Sfc_LatLon0.15_PT174H.grib2 2026-04-30 04:36 3.8M
20260430T00Z_MSC_GDPS_DewPointDepression_AGL-2m_LatLon0.15_PT174H.grib2 2026-04-30 04:36 763K
20260430T00Z_MSC_GDPS_DewPointDepression_IsbL-0010_LatLon0.15_PT174H.grib2 2026-04-30 04:36 74K
20260430T00Z_MSC_GDPS_DewPointDepression_IsbL-0020_LatLon0.15_PT174H.grib2 2026-04-30 04:36 68K
20260430T00Z_MSC_GDPS_DewPointDepression_IsbL-0030_LatLon0.15_PT174H.grib2 2026-04-30 04:36 89K
20260430T00Z_MSC_GDPS_DewPointDepression_IsbL-0050_LatLon0.15_PT174H.grib2 2026-04-30 04:36 375K
20260430T00Z_MSC_GDPS_DewPointDepression_IsbL-0100_LatLon0.15_PT174H.grib2 2026-04-30 04:36 395K
20260430T00Z_MSC_GDPS_DewPointDepression_IsbL-0150_LatLon0.15_PT174H.grib2 2026-04-30 04:36 489K
20260430T00Z_MSC_GDPS_DewPointDepression_IsbL-0175_LatLon0.15_PT174H.grib2 2026-04-30 04:36 598K
20260430T00Z_MSC_GDPS_DewPointDepression_IsbL-0200_LatLon0.15_PT174H.grib2 2026-04-30 04:36 685K
20260430T00Z_MSC_GDPS_DewPointDepression_IsbL-0225_LatLon0.15_PT174H.grib2 2026-04-30 04:36 761K
20260430T00Z_MSC_GDPS_DewPointDepression_IsbL-0250_LatLon0.15_PT174H.grib2 2026-04-30 04:36 860K
20260430T00Z_MSC_GDPS_DewPointDepression_IsbL-0275_LatLon0.15_PT174H.grib2 2026-04-30 04:36 885K
20260430T00Z_MSC_GDPS_DewPointDepression_IsbL-0300_LatLon0.15_PT174H.grib2 2026-04-30 04:36 935K
20260430T00Z_MSC_GDPS_DewPointDepression_IsbL-0350_LatLon0.15_PT174H.grib2 2026-04-30 04:36 965K
20260430T00Z_MSC_GDPS_DewPointDepression_IsbL-0400_LatLon0.15_PT174H.grib2 2026-04-30 04:36 1.0M
20260430T00Z_MSC_GDPS_DewPointDepression_IsbL-0450_LatLon0.15_PT174H.grib2 2026-04-30 04:36 1.0M
20260430T00Z_MSC_GDPS_DewPointDepression_IsbL-0500_LatLon0.15_PT174H.grib2 2026-04-30 04:36 1.0M
20260430T00Z_MSC_GDPS_DewPointDepression_IsbL-0550_LatLon0.15_PT174H.grib2 2026-04-30 04:36 1.0M
20260430T00Z_MSC_GDPS_DewPointDepression_IsbL-0600_LatLon0.15_PT174H.grib2 2026-04-30 04:36 1.1M
20260430T00Z_MSC_GDPS_DewPointDepression_IsbL-0650_LatLon0.15_PT174H.grib2 2026-04-30 04:36 1.1M
20260430T00Z_MSC_GDPS_DewPointDepression_IsbL-0700_LatLon0.15_PT174H.grib2 2026-04-30 04:36 1.1M
20260430T00Z_MSC_GDPS_DewPointDepression_IsbL-0750_LatLon0.15_PT174H.grib2 2026-04-30 04:36 1.1M
20260430T00Z_MSC_GDPS_DewPointDepression_IsbL-0800_LatLon0.15_PT174H.grib2 2026-04-30 04:36 1.1M
20260430T00Z_MSC_GDPS_DewPointDepression_IsbL-0850_LatLon0.15_PT174H.grib2 2026-04-30 04:36 1.2M
20260430T00Z_MSC_GDPS_DewPointDepression_IsbL-0875_LatLon0.15_PT174H.grib2 2026-04-30 04:36 1.1M
20260430T00Z_MSC_GDPS_DewPointDepression_IsbL-0900_LatLon0.15_PT174H.grib2 2026-04-30 04:36 1.1M
20260430T00Z_MSC_GDPS_DewPointDepression_IsbL-0925_LatLon0.15_PT174H.grib2 2026-04-30 04:36 1.0M
20260430T00Z_MSC_GDPS_DewPointDepression_IsbL-0950_LatLon0.15_PT174H.grib2 2026-04-30 04:36 1.0M
20260430T00Z_MSC_GDPS_DewPointDepression_IsbL-0970_LatLon0.15_PT174H.grib2 2026-04-30 04:36 1.0M
20260430T00Z_MSC_GDPS_DewPointDepression_IsbL-0985_LatLon0.15_PT174H.grib2 2026-04-30 04:36 1.0M
20260430T00Z_MSC_GDPS_DewPointDepression_IsbL-1000_LatLon0.15_PT174H.grib2 2026-04-30 04:36 965K
20260430T00Z_MSC_GDPS_DewPointDepression_IsbL-1015_LatLon0.15_PT174H.grib2 2026-04-30 04:36 910K
20260430T00Z_MSC_GDPS_DewPoint_AGL-2m_LatLon0.15_PT174H.grib2 2026-04-30 04:36 604K
20260430T00Z_MSC_GDPS_DownwardLongwaveRadiationFlux-Accum_Sfc_LatLon0.15_PT174H.grib2 2026-04-30 04:36 644K
20260430T00Z_MSC_GDPS_DownwardShortwaveRadiationFlux-Accum_NTAtm_LatLon0.15_PT174H.grib2 2026-04-30 04:36 225K
20260430T00Z_MSC_GDPS_DownwardShortwaveRadiationFlux-Accum_Sfc_LatLon0.15_PT174H.grib2 2026-04-30 04:36 830K
20260430T00Z_MSC_GDPS_FreezingRain-Accum12h_Sfc_LatLon0.15_PT174H.grib2 2026-04-30 04:36 56K
20260430T00Z_MSC_GDPS_FreezingRain-Accum24h_Sfc_LatLon0.15_PT174H.grib2 2026-04-30 04:36 72K
20260430T00Z_MSC_GDPS_FreezingRain-Accum6h_Sfc_LatLon0.15_PT174H.grib2 2026-04-30 04:36 38K
20260430T00Z_MSC_GDPS_FreezingRain-Accum_Sfc_LatLon0.15_PT174H.grib2 2026-04-30 04:36 373K
20260430T00Z_MSC_GDPS_GeopotentialHeight_IsbL-0001_LatLon0.15_PT174H.grib2 2026-04-30 04:36 431K
20260430T00Z_MSC_GDPS_GeopotentialHeight_IsbL-0005_LatLon0.15_PT174H.grib2 2026-04-30 04:36 482K
20260430T00Z_MSC_GDPS_GeopotentialHeight_IsbL-0010_LatLon0.15_PT174H.grib2 2026-04-30 04:36 474K
20260430T00Z_MSC_GDPS_GeopotentialHeight_IsbL-0020_LatLon0.15_PT174H.grib2 2026-04-30 04:36 410K
20260430T00Z_MSC_GDPS_GeopotentialHeight_IsbL-0030_LatLon0.15_PT174H.grib2 2026-04-30 04:36 563K
20260430T00Z_MSC_GDPS_GeopotentialHeight_IsbL-0050_LatLon0.15_PT174H.grib2 2026-04-30 04:36 560K
20260430T00Z_MSC_GDPS_GeopotentialHeight_IsbL-0100_LatLon0.15_PT174H.grib2 2026-04-30 04:36 605K
20260430T00Z_MSC_GDPS_GeopotentialHeight_IsbL-0150_LatLon0.15_PT174H.grib2 2026-04-30 04:36 625K
20260430T00Z_MSC_GDPS_GeopotentialHeight_IsbL-0175_LatLon0.15_PT174H.grib2 2026-04-30 04:36 630K
20260430T00Z_MSC_GDPS_GeopotentialHeight_IsbL-0200_LatLon0.15_PT174H.grib2 2026-04-30 04:36 635K
20260430T00Z_MSC_GDPS_GeopotentialHeight_IsbL-0225_LatLon0.15_PT174H.grib2 2026-04-30 04:36 639K
20260430T00Z_MSC_GDPS_GeopotentialHeight_IsbL-0250_LatLon0.15_PT174H.grib2 2026-04-30 04:36 640K
20260430T00Z_MSC_GDPS_GeopotentialHeight_IsbL-0275_LatLon0.15_PT174H.grib2 2026-04-30 04:36 639K
20260430T00Z_MSC_GDPS_GeopotentialHeight_IsbL-0300_LatLon0.15_PT174H.grib2 2026-04-30 04:36 636K
20260430T00Z_MSC_GDPS_GeopotentialHeight_IsbL-0350_LatLon0.15_PT174H.grib2 2026-04-30 04:36 624K
20260430T00Z_MSC_GDPS_GeopotentialHeight_IsbL-0400_LatLon0.15_PT174H.grib2 2026-04-30 04:36 616K
20260430T00Z_MSC_GDPS_GeopotentialHeight_IsbL-0450_LatLon0.15_PT174H.grib2 2026-04-30 04:36 537K
20260430T00Z_MSC_GDPS_GeopotentialHeight_IsbL-0500_LatLon0.15_PT174H.grib2 2026-04-30 04:36 527K
20260430T00Z_MSC_GDPS_GeopotentialHeight_IsbL-0550_LatLon0.15_PT174H.grib2 2026-04-30 04:36 524K
20260430T00Z_MSC_GDPS_GeopotentialHeight_IsbL-0600_LatLon0.15_PT174H.grib2 2026-04-30 04:36 689K
20260430T00Z_MSC_GDPS_GeopotentialHeight_IsbL-0650_LatLon0.15_PT174H.grib2 2026-04-30 04:36 687K
20260430T00Z_MSC_GDPS_GeopotentialHeight_IsbL-0700_LatLon0.15_PT174H.grib2 2026-04-30 04:36 690K
20260430T00Z_MSC_GDPS_GeopotentialHeight_IsbL-0750_LatLon0.15_PT174H.grib2 2026-04-30 04:36 691K
20260430T00Z_MSC_GDPS_GeopotentialHeight_IsbL-0800_LatLon0.15_PT174H.grib2 2026-04-30 04:36 705K
20260430T00Z_MSC_GDPS_GeopotentialHeight_IsbL-0850_LatLon0.15_PT174H.grib2 2026-04-30 04:36 713K
20260430T00Z_MSC_GDPS_GeopotentialHeight_IsbL-0875_LatLon0.15_PT174H.grib2 2026-04-30 04:36 723K
20260430T00Z_MSC_GDPS_GeopotentialHeight_IsbL-0900_LatLon0.15_PT174H.grib2 2026-04-30 04:36 727K
20260430T00Z_MSC_GDPS_GeopotentialHeight_IsbL-0925_LatLon0.15_PT174H.grib2 2026-04-30 04:36 732K
20260430T00Z_MSC_GDPS_GeopotentialHeight_IsbL-0950_LatLon0.15_PT174H.grib2 2026-04-30 04:36 741K
20260430T00Z_MSC_GDPS_GeopotentialHeight_IsbL-0970_LatLon0.15_PT174H.grib2 2026-04-30 04:36 754K
20260430T00Z_MSC_GDPS_GeopotentialHeight_IsbL-0985_LatLon0.15_PT174H.grib2 2026-04-30 04:36 768K
20260430T00Z_MSC_GDPS_GeopotentialHeight_IsbL-1000_LatLon0.15_PT174H.grib2 2026-04-30 04:36 789K
20260430T00Z_MSC_GDPS_GeopotentialHeight_IsbL-1015_LatLon0.15_PT174H.grib2 2026-04-30 04:36 808K
20260430T00Z_MSC_GDPS_Humidex_Sfc_LatLon0.15_PT174H.grib2 2026-04-30 04:36 5.3M
20260430T00Z_MSC_GDPS_IcePellets-Accum12h_Sfc_LatLon0.15_PT174H.grib2 2026-04-30 04:36 26K
20260430T00Z_MSC_GDPS_IcePellets-Accum24h_Sfc_LatLon0.15_PT174H.grib2 2026-04-30 04:36 33K
20260430T00Z_MSC_GDPS_IcePellets-Accum6h_Sfc_LatLon0.15_PT174H.grib2 2026-04-30 04:36 21K
20260430T00Z_MSC_GDPS_IcePellets-Accum_Sfc_LatLon0.15_PT174H.grib2 2026-04-30 04:36 121K
20260430T00Z_MSC_GDPS_KIndex_Sfc_LatLon0.15_PT174H.grib2 2026-04-30 04:36 6.4M
20260430T00Z_MSC_GDPS_LatentHeatNetFlux_Sfc_LatLon0.15_PT174H.grib2 2026-04-30 04:36 543K
20260430T00Z_MSC_GDPS_LiftedIndex-MU-VT_IsbL-0500_LatLon0.15_PT174H.grib2 2026-04-30 04:36 5.4M
20260430T00Z_MSC_GDPS_NetLongwaveRadiationFlux-Accum_Sfc_LatLon0.15_PT174H.grib2 2026-04-30 04:36 1.1M
20260430T00Z_MSC_GDPS_NetShortwaveRadiationFlux-Accum_Sfc_LatLon0.15_PT174H.grib2 2026-04-30 04:36 827K
20260430T00Z_MSC_GDPS_O3MixingRatio_Sfc_LatLon0.15_PT174H.grib2 2026-04-30 04:51 1.9M
20260430T00Z_MSC_GDPS_O3_EAtm_LatLon0.15_PT174H.grib2 2026-04-30 04:51 2.4M
20260430T00Z_MSC_GDPS_PlanetaryBoundaryLayerHeight_Sfc_LatLon0.15_PT174H.grib2 2026-04-30 04:36 2.5M
20260430T00Z_MSC_GDPS_Precip-Accum12h_Sfc_LatLon0.15_PT174H.grib2 2026-04-30 04:36 3.7M
20260430T00Z_MSC_GDPS_Precip-Accum24h_Sfc_LatLon0.15_PT174H.grib2 2026-04-30 04:36 4.2M
20260430T00Z_MSC_GDPS_Precip-Accum6h_Sfc_LatLon0.15_PT174H.grib2 2026-04-30 04:36 3.5M
20260430T00Z_MSC_GDPS_Precip-Accum_Sfc_LatLon0.15_PT174H.grib2 2026-04-30 04:36 5.3M
20260430T00Z_MSC_GDPS_PrecipRate_Sfc_LatLon0.15_PT174H.grib2 2026-04-30 04:36 3.0M
20260430T00Z_MSC_GDPS_PrecipType-Instant_Sfc_LatLon0.15_PT174H.grib2 2026-04-30 04:36 1.5M
20260430T00Z_MSC_GDPS_Pressure_MSL_LatLon0.15_PT174H.grib2 2026-04-30 04:36 819K
20260430T00Z_MSC_GDPS_Pressure_PVU-1.5_LatLon0.15_PT174H.grib2 2026-04-30 04:36 5.8M
20260430T00Z_MSC_GDPS_Pressure_PVU-1_LatLon0.15_PT174H.grib2 2026-04-30 04:36 6.0M
20260430T00Z_MSC_GDPS_Pressure_PVU-2_LatLon0.15_PT174H.grib2 2026-04-30 04:36 5.6M
20260430T00Z_MSC_GDPS_Pressure_Sfc_LatLon0.15_PT174H.grib2 2026-04-30 04:36 1.1M
20260430T00Z_MSC_GDPS_RadiativeTemp_Sfc_LatLon0.15_PT174H.grib2 2026-04-30 04:36 670K
20260430T00Z_MSC_GDPS_Rain-Accum12h_Sfc_LatLon0.15_PT174H.grib2 2026-04-30 04:36 2.5M
20260430T00Z_MSC_GDPS_Rain-Accum24h_Sfc_LatLon0.15_PT174H.grib2 2026-04-30 04:36 2.9M
20260430T00Z_MSC_GDPS_Rain-Accum6h_Sfc_LatLon0.15_PT174H.grib2 2026-04-30 04:36 2.3M
20260430T00Z_MSC_GDPS_Rain-Accum_Sfc_LatLon0.15_PT174H.grib2 2026-04-30 04:36 4.2M
20260430T00Z_MSC_GDPS_RelativeHumidity_AGL-2m_LatLon0.15_PT174H.grib2 2026-04-30 04:36 1.1M
20260430T00Z_MSC_GDPS_RelativeHumidity_IsbL-0010_LatLon0.15_PT174H.grib2 2026-04-30 04:36 192K
20260430T00Z_MSC_GDPS_RelativeHumidity_IsbL-0020_LatLon0.15_PT174H.grib2 2026-04-30 04:36 158K
20260430T00Z_MSC_GDPS_RelativeHumidity_IsbL-0030_LatLon0.15_PT174H.grib2 2026-04-30 04:36 260K
20260430T00Z_MSC_GDPS_RelativeHumidity_IsbL-0050_LatLon0.15_PT174H.grib2 2026-04-30 04:36 331K
20260430T00Z_MSC_GDPS_RelativeHumidity_IsbL-0100_LatLon0.15_PT174H.grib2 2026-04-30 04:36 497K
20260430T00Z_MSC_GDPS_RelativeHumidity_IsbL-0150_LatLon0.15_PT174H.grib2 2026-04-30 04:36 672K
20260430T00Z_MSC_GDPS_RelativeHumidity_IsbL-0175_LatLon0.15_PT174H.grib2 2026-04-30 04:36 612K
20260430T00Z_MSC_GDPS_RelativeHumidity_IsbL-0200_LatLon0.15_PT174H.grib2 2026-04-30 04:36 714K
20260430T00Z_MSC_GDPS_RelativeHumidity_IsbL-0225_LatLon0.15_PT174H.grib2 2026-04-30 04:36 790K
20260430T00Z_MSC_GDPS_RelativeHumidity_IsbL-0250_LatLon0.15_PT174H.grib2 2026-04-30 04:36 865K
20260430T00Z_MSC_GDPS_RelativeHumidity_IsbL-0275_LatLon0.15_PT174H.grib2 2026-04-30 04:36 890K
20260430T00Z_MSC_GDPS_RelativeHumidity_IsbL-0300_LatLon0.15_PT174H.grib2 2026-04-30 04:36 935K
20260430T00Z_MSC_GDPS_RelativeHumidity_IsbL-0350_LatLon0.15_PT174H.grib2 2026-04-30 04:36 951K
20260430T00Z_MSC_GDPS_RelativeHumidity_IsbL-0400_LatLon0.15_PT174H.grib2 2026-04-30 04:36 1.0M
20260430T00Z_MSC_GDPS_RelativeHumidity_IsbL-0450_LatLon0.15_PT174H.grib2 2026-04-30 04:36 1.0M
20260430T00Z_MSC_GDPS_RelativeHumidity_IsbL-0500_LatLon0.15_PT174H.grib2 2026-04-30 04:36 1.0M
20260430T00Z_MSC_GDPS_RelativeHumidity_IsbL-0550_LatLon0.15_PT174H.grib2 2026-04-30 04:36 1.0M
20260430T00Z_MSC_GDPS_RelativeHumidity_IsbL-0600_LatLon0.15_PT174H.grib2 2026-04-30 04:36 1.0M
20260430T00Z_MSC_GDPS_RelativeHumidity_IsbL-0650_LatLon0.15_PT174H.grib2 2026-04-30 04:36 1.1M
20260430T00Z_MSC_GDPS_RelativeHumidity_IsbL-0700_LatLon0.15_PT174H.grib2 2026-04-30 04:36 1.1M
20260430T00Z_MSC_GDPS_RelativeHumidity_IsbL-0750_LatLon0.15_PT174H.grib2 2026-04-30 04:36 1.1M
20260430T00Z_MSC_GDPS_RelativeHumidity_IsbL-0800_LatLon0.15_PT174H.grib2 2026-04-30 04:36 1.2M
20260430T00Z_MSC_GDPS_RelativeHumidity_IsbL-0850_LatLon0.15_PT174H.grib2 2026-04-30 04:36 1.3M
20260430T00Z_MSC_GDPS_RelativeHumidity_IsbL-0875_LatLon0.15_PT174H.grib2 2026-04-30 04:36 1.2M
20260430T00Z_MSC_GDPS_RelativeHumidity_IsbL-0900_LatLon0.15_PT174H.grib2 2026-04-30 04:36 1.2M
20260430T00Z_MSC_GDPS_RelativeHumidity_IsbL-0925_LatLon0.15_PT174H.grib2 2026-04-30 04:36 1.2M
20260430T00Z_MSC_GDPS_RelativeHumidity_IsbL-0950_LatLon0.15_PT174H.grib2 2026-04-30 04:36 1.2M
20260430T00Z_MSC_GDPS_RelativeHumidity_IsbL-0970_LatLon0.15_PT174H.grib2 2026-04-30 04:36 1.2M
20260430T00Z_MSC_GDPS_RelativeHumidity_IsbL-0985_LatLon0.15_PT174H.grib2 2026-04-30 04:36 1.1M
20260430T00Z_MSC_GDPS_RelativeHumidity_IsbL-1000_LatLon0.15_PT174H.grib2 2026-04-30 04:36 1.2M
20260430T00Z_MSC_GDPS_RelativeHumidity_IsbL-1015_LatLon0.15_PT174H.grib2 2026-04-30 04:36 1.1M
20260430T00Z_MSC_GDPS_RelativeVorticity_IsbL-0200_LatLon0.15_PT174H.grib2 2026-04-30 04:36 1.5M
20260430T00Z_MSC_GDPS_RelativeVorticity_IsbL-0250_LatLon0.15_PT174H.grib2 2026-04-30 04:36 1.3M
20260430T00Z_MSC_GDPS_RelativeVorticity_IsbL-0500_LatLon0.15_PT174H.grib2 2026-04-30 04:36 1.5M
20260430T00Z_MSC_GDPS_RelativeVorticity_IsbL-0700_LatLon0.15_PT174H.grib2 2026-04-30 04:36 1.3M
20260430T00Z_MSC_GDPS_RelativeVorticity_IsbL-0850_LatLon0.15_PT174H.grib2 2026-04-30 04:36 1.6M
20260430T00Z_MSC_GDPS_Runoff-Accum_Sfc_LatLon0.15_PT174H.grib2 2026-04-30 04:36 122K
20260430T00Z_MSC_GDPS_SensibleHeatNetFlux_Sfc_LatLon0.15_PT174H.grib2 2026-04-30 04:36 491K
20260430T00Z_MSC_GDPS_ShowalterIndex_IsbL-0500_LatLon0.15_PT174H.grib2 2026-04-30 04:36 6.2M
20260430T00Z_MSC_GDPS_Snow-Accum12h_Sfc_LatLon0.15_PT174H.grib2 2026-04-30 04:36 1.3M
20260430T00Z_MSC_GDPS_Snow-Accum24h_Sfc_LatLon0.15_PT174H.grib2 2026-04-30 04:36 1.4M
20260430T00Z_MSC_GDPS_Snow-Accum6h_Sfc_LatLon0.15_PT174H.grib2 2026-04-30 04:36 1.2M
20260430T00Z_MSC_GDPS_Snow-Accum_Sfc_LatLon0.15_PT174H.grib2 2026-04-30 04:36 2.1M
20260430T00Z_MSC_GDPS_SnowDensity_Sfc_LatLon0.15_PT174H.grib2 2026-04-30 04:36 260K
20260430T00Z_MSC_GDPS_SnowDepth_Sfc_LatLon0.15_PT174H.grib2 2026-04-30 04:36 1.7M
20260430T00Z_MSC_GDPS_SoilTemp_DBS-0to10cm_LatLon0.15_PT174H.grib2 2026-04-30 04:36 512K
20260430T00Z_MSC_GDPS_SoilTemp_Sfc_LatLon0.15_PT174H.grib2 2026-04-30 04:36 581K
20260430T00Z_MSC_GDPS_SoilVolumetricIceContent_Sfc_LatLon0.15_PT174H.grib2 2026-04-30 04:36 187K
20260430T00Z_MSC_GDPS_SoilVolumetricWaterContent_DBS-0to10cm_LatLon0.15_PT174H.grib2 2026-04-30 04:36 593K
20260430T00Z_MSC_GDPS_SoilVolumetricWaterContent_DBS-0to1cm_LatLon0.15_PT174H.grib2 2026-04-30 04:36 652K
20260430T00Z_MSC_GDPS_SpecificHumidity_AGL-120m_LatLon0.15_PT174H.grib2 2026-04-30 04:36 1.1M
20260430T00Z_MSC_GDPS_SpecificHumidity_AGL-2m_LatLon0.15_PT174H.grib2 2026-04-30 04:36 1.2M
20260430T00Z_MSC_GDPS_SpecificHumidity_AGL-40m_LatLon0.15_PT174H.grib2 2026-04-30 04:36 1.1M
20260430T00Z_MSC_GDPS_SpecificHumidity_AGL-80m_LatLon0.15_PT174H.grib2 2026-04-30 04:36 1.1M
20260430T00Z_MSC_GDPS_SpecificHumidity_IsbL-0001_LatLon0.15_PT174H.grib2 2026-04-30 04:36 1.2M
20260430T00Z_MSC_GDPS_SpecificHumidity_IsbL-0005_LatLon0.15_PT174H.grib2 2026-04-30 04:36 1.1M
20260430T00Z_MSC_GDPS_SpecificHumidity_IsbL-0010_LatLon0.15_PT174H.grib2 2026-04-30 04:36 1.2M
20260430T00Z_MSC_GDPS_SpecificHumidity_IsbL-0020_LatLon0.15_PT174H.grib2 2026-04-30 04:36 1.2M
20260430T00Z_MSC_GDPS_SpecificHumidity_IsbL-0030_LatLon0.15_PT174H.grib2 2026-04-30 04:36 1.5M
20260430T00Z_MSC_GDPS_SpecificHumidity_IsbL-0050_LatLon0.15_PT174H.grib2 2026-04-30 04:36 1.5M
20260430T00Z_MSC_GDPS_SpecificHumidity_IsbL-0100_LatLon0.15_PT174H.grib2 2026-04-30 04:36 1.2M
20260430T00Z_MSC_GDPS_SpecificHumidity_IsbL-0150_LatLon0.15_PT174H.grib2 2026-04-30 04:36 1.0M
20260430T00Z_MSC_GDPS_SpecificHumidity_IsbL-0175_LatLon0.15_PT174H.grib2 2026-04-30 04:36 1.3M
20260430T00Z_MSC_GDPS_SpecificHumidity_IsbL-0200_LatLon0.15_PT174H.grib2 2026-04-30 04:36 1.3M
20260430T00Z_MSC_GDPS_SpecificHumidity_IsbL-0225_LatLon0.15_PT174H.grib2 2026-04-30 04:36 1.3M
20260430T00Z_MSC_GDPS_SpecificHumidity_IsbL-0250_LatLon0.15_PT174H.grib2 2026-04-30 04:36 1.2M
20260430T00Z_MSC_GDPS_SpecificHumidity_IsbL-0275_LatLon0.15_PT174H.grib2 2026-04-30 04:36 1.3M
20260430T00Z_MSC_GDPS_SpecificHumidity_IsbL-0300_LatLon0.15_PT174H.grib2 2026-04-30 04:36 1.2M
20260430T00Z_MSC_GDPS_SpecificHumidity_IsbL-0350_LatLon0.15_PT174H.grib2 2026-04-30 04:36 1.2M
20260430T00Z_MSC_GDPS_SpecificHumidity_IsbL-0400_LatLon0.15_PT174H.grib2 2026-04-30 04:36 1.5M
20260430T00Z_MSC_GDPS_SpecificHumidity_IsbL-0450_LatLon0.15_PT174H.grib2 2026-04-30 04:36 1.3M
20260430T00Z_MSC_GDPS_SpecificHumidity_IsbL-0500_LatLon0.15_PT174H.grib2 2026-04-30 04:36 1.4M
20260430T00Z_MSC_GDPS_SpecificHumidity_IsbL-0550_LatLon0.15_PT174H.grib2 2026-04-30 04:36 1.6M
20260430T00Z_MSC_GDPS_SpecificHumidity_IsbL-0600_LatLon0.15_PT174H.grib2 2026-04-30 04:36 1.7M
20260430T00Z_MSC_GDPS_SpecificHumidity_IsbL-0650_LatLon0.15_PT174H.grib2 2026-04-30 04:36 1.5M
20260430T00Z_MSC_GDPS_SpecificHumidity_IsbL-0700_LatLon0.15_PT174H.grib2 2026-04-30 04:36 1.6M
20260430T00Z_MSC_GDPS_SpecificHumidity_IsbL-0750_LatLon0.15_PT174H.grib2 2026-04-30 04:36 1.7M
20260430T00Z_MSC_GDPS_SpecificHumidity_IsbL-0800_LatLon0.15_PT174H.grib2 2026-04-30 04:36 1.8M
20260430T00Z_MSC_GDPS_SpecificHumidity_IsbL-0850_LatLon0.15_PT174H.grib2 2026-04-30 04:36 1.9M
20260430T00Z_MSC_GDPS_SpecificHumidity_IsbL-0875_LatLon0.15_PT174H.grib2 2026-04-30 04:36 1.9M
20260430T00Z_MSC_GDPS_SpecificHumidity_IsbL-0900_LatLon0.15_PT174H.grib2 2026-04-30 04:36 1.6M
20260430T00Z_MSC_GDPS_SpecificHumidity_IsbL-0925_LatLon0.15_PT174H.grib2 2026-04-30 04:36 1.6M
20260430T00Z_MSC_GDPS_SpecificHumidity_IsbL-0950_LatLon0.15_PT174H.grib2 2026-04-30 04:36 1.6M
20260430T00Z_MSC_GDPS_SpecificHumidity_IsbL-0970_LatLon0.15_PT174H.grib2 2026-04-30 04:36 1.5M
20260430T00Z_MSC_GDPS_SpecificHumidity_IsbL-0985_LatLon0.15_PT174H.grib2 2026-04-30 04:36 1.5M
20260430T00Z_MSC_GDPS_SpecificHumidity_IsbL-1000_LatLon0.15_PT174H.grib2 2026-04-30 04:36 1.5M
20260430T00Z_MSC_GDPS_SpecificHumidity_IsbL-1015_LatLon0.15_PT174H.grib2 2026-04-30 04:36 1.5M
20260430T00Z_MSC_GDPS_SpecificHumidity_Sfc_LatLon0.15_PT174H.grib2 2026-04-30 04:36 679K
20260430T00Z_MSC_GDPS_Thickness_IsbL-0850to0700_LatLon0.15_PT174H.grib2 2026-04-30 04:36 470K
20260430T00Z_MSC_GDPS_Thickness_IsbL-1000to0500_LatLon0.15_PT174H.grib2 2026-04-30 04:36 374K
20260430T00Z_MSC_GDPS_Thickness_IsbL-1000to0850_LatLon0.15_PT174H.grib2 2026-04-30 04:36 490K
20260430T00Z_MSC_GDPS_TotalCloudCover_Sfc_LatLon0.15_PT174H.grib2 2026-04-30 04:36 821K
20260430T00Z_MSC_GDPS_TotalTotalsIndex_Sfc_LatLon0.15_PT174H.grib2 2026-04-30 04:36 6.2M
20260430T00Z_MSC_GDPS_UVIndex-ClearSky_Sfc_LatLon0.15_PT174H.grib2 2026-04-30 04:51 1.1M
20260430T00Z_MSC_GDPS_UVIndex_Sfc_LatLon0.15_PT174H.grib2 2026-04-30 04:51 1.5M
20260430T00Z_MSC_GDPS_UpwardLongwaveRadiationFlux_NTAtm_LatLon0.15_PT174H.grib2 2026-04-30 04:36 828K
20260430T00Z_MSC_GDPS_VerticalVelocity_IsbL-0200_LatLon0.15_PT174H.grib2 2026-04-30 04:36 1.2M
20260430T00Z_MSC_GDPS_VerticalVelocity_IsbL-0250_LatLon0.15_PT174H.grib2 2026-04-30 04:36 1.0M
20260430T00Z_MSC_GDPS_VerticalVelocity_IsbL-0500_LatLon0.15_PT174H.grib2 2026-04-30 04:36 1.0M
20260430T00Z_MSC_GDPS_VerticalVelocity_IsbL-0600_LatLon0.15_PT174H.grib2 2026-04-30 04:36 1.1M
20260430T00Z_MSC_GDPS_VerticalVelocity_IsbL-0700_LatLon0.15_PT174H.grib2 2026-04-30 04:36 1.1M
20260430T00Z_MSC_GDPS_VerticalVelocity_IsbL-0850_LatLon0.15_PT174H.grib2 2026-04-30 04:36 1.6M
20260430T00Z_MSC_GDPS_WindChill_Sfc_LatLon0.15_PT174H.grib2 2026-04-30 04:36 5.3M
20260430T00Z_MSC_GDPS_WindDir_AGL-10m_LatLon0.15_PT174H.grib2 2026-04-30 04:36 1.3M
20260430T00Z_MSC_GDPS_WindDir_AGL-120m_LatLon0.15_PT174H.grib2 2026-04-30 04:36 1.3M
20260430T00Z_MSC_GDPS_WindDir_AGL-40m_LatLon0.15_PT174H.grib2 2026-04-30 04:36 1.4M
20260430T00Z_MSC_GDPS_WindDir_AGL-80m_LatLon0.15_PT174H.grib2 2026-04-30 04:36 1.3M
20260430T00Z_MSC_GDPS_WindDir_IsbL-0001_LatLon0.15_PT174H.grib2 2026-04-30 04:36 664K
20260430T00Z_MSC_GDPS_WindDir_IsbL-0005_LatLon0.15_PT174H.grib2 2026-04-30 04:36 810K
20260430T00Z_MSC_GDPS_WindDir_IsbL-0010_LatLon0.15_PT174H.grib2 2026-04-30 04:36 828K
20260430T00Z_MSC_GDPS_WindDir_IsbL-0020_LatLon0.15_PT174H.grib2 2026-04-30 04:36 933K
20260430T00Z_MSC_GDPS_WindDir_IsbL-0030_LatLon0.15_PT174H.grib2 2026-04-30 04:36 933K
20260430T00Z_MSC_GDPS_WindDir_IsbL-0050_LatLon0.15_PT174H.grib2 2026-04-30 04:36 947K
20260430T00Z_MSC_GDPS_WindDir_IsbL-0100_LatLon0.15_PT174H.grib2 2026-04-30 04:36 1.0M
20260430T00Z_MSC_GDPS_WindDir_IsbL-0150_LatLon0.15_PT174H.grib2 2026-04-30 04:36 1.0M
20260430T00Z_MSC_GDPS_WindDir_IsbL-0175_LatLon0.15_PT174H.grib2 2026-04-30 04:36 1.0M
20260430T00Z_MSC_GDPS_WindDir_IsbL-0200_LatLon0.15_PT174H.grib2 2026-04-30 04:36 1.1M
20260430T00Z_MSC_GDPS_WindDir_IsbL-0225_LatLon0.15_PT174H.grib2 2026-04-30 04:36 1.1M
20260430T00Z_MSC_GDPS_WindDir_IsbL-0250_LatLon0.15_PT174H.grib2 2026-04-30 04:36 1.1M
20260430T00Z_MSC_GDPS_WindDir_IsbL-0275_LatLon0.15_PT174H.grib2 2026-04-30 04:36 1.2M
20260430T00Z_MSC_GDPS_WindDir_IsbL-0300_LatLon0.15_PT174H.grib2 2026-04-30 04:36 1.2M
20260430T00Z_MSC_GDPS_WindDir_IsbL-0350_LatLon0.15_PT174H.grib2 2026-04-30 04:36 1.3M
20260430T00Z_MSC_GDPS_WindDir_IsbL-0400_LatLon0.15_PT174H.grib2 2026-04-30 04:36 1.3M
20260430T00Z_MSC_GDPS_WindDir_IsbL-0450_LatLon0.15_PT174H.grib2 2026-04-30 04:36 1.3M
20260430T00Z_MSC_GDPS_WindDir_IsbL-0500_LatLon0.15_PT174H.grib2 2026-04-30 04:36 1.4M
20260430T00Z_MSC_GDPS_WindDir_IsbL-0550_LatLon0.15_PT174H.grib2 2026-04-30 04:36 1.4M
20260430T00Z_MSC_GDPS_WindDir_IsbL-0600_LatLon0.15_PT174H.grib2 2026-04-30 04:36 1.4M
20260430T00Z_MSC_GDPS_WindDir_IsbL-0650_LatLon0.15_PT174H.grib2 2026-04-30 04:36 1.5M
20260430T00Z_MSC_GDPS_WindDir_IsbL-0700_LatLon0.15_PT174H.grib2 2026-04-30 04:36 1.6M
20260430T00Z_MSC_GDPS_WindDir_IsbL-0750_LatLon0.15_PT174H.grib2 2026-04-30 04:36 1.6M
20260430T00Z_MSC_GDPS_WindDir_IsbL-0800_LatLon0.15_PT174H.grib2 2026-04-30 04:36 1.8M
20260430T00Z_MSC_GDPS_WindDir_IsbL-0850_LatLon0.15_PT174H.grib2 2026-04-30 04:36 1.9M
20260430T00Z_MSC_GDPS_WindDir_IsbL-0875_LatLon0.15_PT174H.grib2 2026-04-30 04:36 1.9M
20260430T00Z_MSC_GDPS_WindDir_IsbL-0900_LatLon0.15_PT174H.grib2 2026-04-30 04:36 1.9M
20260430T00Z_MSC_GDPS_WindDir_IsbL-0925_LatLon0.15_PT174H.grib2 2026-04-30 04:36 1.9M
20260430T00Z_MSC_GDPS_WindDir_IsbL-0950_LatLon0.15_PT174H.grib2 2026-04-30 04:36 1.9M
20260430T00Z_MSC_GDPS_WindDir_IsbL-0970_LatLon0.15_PT174H.grib2 2026-04-30 04:36 2.0M
20260430T00Z_MSC_GDPS_WindDir_IsbL-0985_LatLon0.15_PT174H.grib2 2026-04-30 04:36 2.0M
20260430T00Z_MSC_GDPS_WindDir_IsbL-1000_LatLon0.15_PT174H.grib2 2026-04-30 04:36 2.0M
20260430T00Z_MSC_GDPS_WindDir_IsbL-1015_LatLon0.15_PT174H.grib2 2026-04-30 04:36 2.0M
20260430T00Z_MSC_GDPS_WindGust-Max_AGL-10m_LatLon0.15_PT174H.grib2 2026-04-30 04:36 2.2M
20260430T00Z_MSC_GDPS_WindGust-Min_AGL-10m_LatLon0.15_PT174H.grib2 2026-04-30 04:36 2.2M
20260430T00Z_MSC_GDPS_WindGust_AGL-10m_LatLon0.15_PT174H.grib2 2026-04-30 04:36 2.2M
20260430T00Z_MSC_GDPS_WindSpeed_AGL-10m_LatLon0.15_PT174H.grib2 2026-04-30 04:36 1.1M
20260430T00Z_MSC_GDPS_WindSpeed_AGL-120m_LatLon0.15_PT174H.grib2 2026-04-30 04:36 1.2M
20260430T00Z_MSC_GDPS_WindSpeed_AGL-40m_LatLon0.15_PT174H.grib2 2026-04-30 04:36 1.2M
20260430T00Z_MSC_GDPS_WindSpeed_AGL-80m_LatLon0.15_PT174H.grib2 2026-04-30 04:36 1.2M
20260430T00Z_MSC_GDPS_WindSpeed_IsbL-0001_LatLon0.15_PT174H.grib2 2026-04-30 04:36 649K
20260430T00Z_MSC_GDPS_WindSpeed_IsbL-0005_LatLon0.15_PT174H.grib2 2026-04-30 04:36 687K
20260430T00Z_MSC_GDPS_WindSpeed_IsbL-0010_LatLon0.15_PT174H.grib2 2026-04-30 04:36 620K
20260430T00Z_MSC_GDPS_WindSpeed_IsbL-0020_LatLon0.15_PT174H.grib2 2026-04-30 04:36 657K
20260430T00Z_MSC_GDPS_WindSpeed_IsbL-0030_LatLon0.15_PT174H.grib2 2026-04-30 04:36 850K
20260430T00Z_MSC_GDPS_WindSpeed_IsbL-0050_LatLon0.15_PT174H.grib2 2026-04-30 04:36 888K
20260430T00Z_MSC_GDPS_WindSpeed_IsbL-0100_LatLon0.15_PT174H.grib2 2026-04-30 04:36 1.1M
20260430T00Z_MSC_GDPS_WindSpeed_IsbL-0150_LatLon0.15_PT174H.grib2 2026-04-30 04:36 1.0M
20260430T00Z_MSC_GDPS_WindSpeed_IsbL-0175_LatLon0.15_PT174H.grib2 2026-04-30 04:36 1.0M
20260430T00Z_MSC_GDPS_WindSpeed_IsbL-0200_LatLon0.15_PT174H.grib2 2026-04-30 04:36 1.1M
20260430T00Z_MSC_GDPS_WindSpeed_IsbL-0225_LatLon0.15_PT174H.grib2 2026-04-30 04:36 1.1M
20260430T00Z_MSC_GDPS_WindSpeed_IsbL-0250_LatLon0.15_PT174H.grib2 2026-04-30 04:36 1.1M
20260430T00Z_MSC_GDPS_WindSpeed_IsbL-0275_LatLon0.15_PT174H.grib2 2026-04-30 04:36 1.1M
20260430T00Z_MSC_GDPS_WindSpeed_IsbL-0300_LatLon0.15_PT174H.grib2 2026-04-30 04:36 1.1M
20260430T00Z_MSC_GDPS_WindSpeed_IsbL-0350_LatLon0.15_PT174H.grib2 2026-04-30 04:36 1.1M
20260430T00Z_MSC_GDPS_WindSpeed_IsbL-0400_LatLon0.15_PT174H.grib2 2026-04-30 04:36 1.1M
20260430T00Z_MSC_GDPS_WindSpeed_IsbL-0450_LatLon0.15_PT174H.grib2 2026-04-30 04:36 1.1M
20260430T00Z_MSC_GDPS_WindSpeed_IsbL-0500_LatLon0.15_PT174H.grib2 2026-04-30 04:36 1.1M
20260430T00Z_MSC_GDPS_WindSpeed_IsbL-0550_LatLon0.15_PT174H.grib2 2026-04-30 04:36 1.1M
20260430T00Z_MSC_GDPS_WindSpeed_IsbL-0600_LatLon0.15_PT174H.grib2 2026-04-30 04:36 1.1M
20260430T00Z_MSC_GDPS_WindSpeed_IsbL-0650_LatLon0.15_PT174H.grib2 2026-04-30 04:36 1.2M
20260430T00Z_MSC_GDPS_WindSpeed_IsbL-0700_LatLon0.15_PT174H.grib2 2026-04-30 04:36 1.2M
20260430T00Z_MSC_GDPS_WindSpeed_IsbL-0750_LatLon0.15_PT174H.grib2 2026-04-30 04:36 1.6M
20260430T00Z_MSC_GDPS_WindSpeed_IsbL-0800_LatLon0.15_PT174H.grib2 2026-04-30 04:36 1.6M
20260430T00Z_MSC_GDPS_WindSpeed_IsbL-0850_LatLon0.15_PT174H.grib2 2026-04-30 04:36 1.7M
20260430T00Z_MSC_GDPS_WindSpeed_IsbL-0875_LatLon0.15_PT174H.grib2 2026-04-30 04:36 1.8M
20260430T00Z_MSC_GDPS_WindSpeed_IsbL-0900_LatLon0.15_PT174H.grib2 2026-04-30 04:36 1.8M
20260430T00Z_MSC_GDPS_WindSpeed_IsbL-0925_LatLon0.15_PT174H.grib2 2026-04-30 04:36 1.8M
20260430T00Z_MSC_GDPS_WindSpeed_IsbL-0950_LatLon0.15_PT174H.grib2 2026-04-30 04:36 1.9M
20260430T00Z_MSC_GDPS_WindSpeed_IsbL-0970_LatLon0.15_PT174H.grib2 2026-04-30 04:36 1.9M
20260430T00Z_MSC_GDPS_WindSpeed_IsbL-0985_LatLon0.15_PT174H.grib2 2026-04-30 04:36 1.8M
20260430T00Z_MSC_GDPS_WindSpeed_IsbL-1000_LatLon0.15_PT174H.grib2 2026-04-30 04:36 1.8M
20260430T00Z_MSC_GDPS_WindSpeed_IsbL-1015_LatLon0.15_PT174H.grib2 2026-04-30 04:36 1.8M
20260430T00Z_MSC_GDPS_WindU_AGL-10m_LatLon0.15_PT174H.grib2 2026-04-30 04:36 1.3M
20260430T00Z_MSC_GDPS_WindU_AGL-120m_LatLon0.15_PT174H.grib2 2026-04-30 04:36 1.0M
20260430T00Z_MSC_GDPS_WindU_AGL-40m_LatLon0.15_PT174H.grib2 2026-04-30 04:36 957K
20260430T00Z_MSC_GDPS_WindU_AGL-80m_LatLon0.15_PT174H.grib2 2026-04-30 04:36 1.0M
20260430T00Z_MSC_GDPS_WindU_IsbL-0001_LatLon0.15_PT174H.grib2 2026-04-30 04:36 504K
20260430T00Z_MSC_GDPS_WindU_IsbL-0005_LatLon0.15_PT174H.grib2 2026-04-30 04:36 687K
20260430T00Z_MSC_GDPS_WindU_IsbL-0010_LatLon0.15_PT174H.grib2 2026-04-30 04:36 697K
20260430T00Z_MSC_GDPS_WindU_IsbL-0020_LatLon0.15_PT174H.grib2 2026-04-30 04:36 724K
20260430T00Z_MSC_GDPS_WindU_IsbL-0030_LatLon0.15_PT174H.grib2 2026-04-30 04:36 731K
20260430T00Z_MSC_GDPS_WindU_IsbL-0050_LatLon0.15_PT174H.grib2 2026-04-30 04:36 757K
20260430T00Z_MSC_GDPS_WindU_IsbL-0100_LatLon0.15_PT174H.grib2 2026-04-30 04:36 859K
20260430T00Z_MSC_GDPS_WindU_IsbL-0150_LatLon0.15_PT174H.grib2 2026-04-30 04:36 1.0M
20260430T00Z_MSC_GDPS_WindU_IsbL-0175_LatLon0.15_PT174H.grib2 2026-04-30 04:36 1.0M
20260430T00Z_MSC_GDPS_WindU_IsbL-0200_LatLon0.15_PT174H.grib2 2026-04-30 04:36 842K
20260430T00Z_MSC_GDPS_WindU_IsbL-0225_LatLon0.15_PT174H.grib2 2026-04-30 04:36 853K
20260430T00Z_MSC_GDPS_WindU_IsbL-0250_LatLon0.15_PT174H.grib2 2026-04-30 04:36 853K
20260430T00Z_MSC_GDPS_WindU_IsbL-0275_LatLon0.15_PT174H.grib2 2026-04-30 04:36 881K
20260430T00Z_MSC_GDPS_WindU_IsbL-0300_LatLon0.15_PT174H.grib2 2026-04-30 04:36 873K
20260430T00Z_MSC_GDPS_WindU_IsbL-0350_LatLon0.15_PT174H.grib2 2026-04-30 04:36 888K
20260430T00Z_MSC_GDPS_WindU_IsbL-0400_LatLon0.15_PT174H.grib2 2026-04-30 04:36 1.1M
20260430T00Z_MSC_GDPS_WindU_IsbL-0450_LatLon0.15_PT174H.grib2 2026-04-30 04:36 1.1M
20260430T00Z_MSC_GDPS_WindU_IsbL-0500_LatLon0.15_PT174H.grib2 2026-04-30 04:36 1.1M
20260430T00Z_MSC_GDPS_WindU_IsbL-0550_LatLon0.15_PT174H.grib2 2026-04-30 04:36 1.1M
20260430T00Z_MSC_GDPS_WindU_IsbL-0600_LatLon0.15_PT174H.grib2 2026-04-30 04:36 1.1M
20260430T00Z_MSC_GDPS_WindU_IsbL-0650_LatLon0.15_PT174H.grib2 2026-04-30 04:36 1.2M
20260430T00Z_MSC_GDPS_WindU_IsbL-0700_LatLon0.15_PT174H.grib2 2026-04-30 04:36 1.2M
20260430T00Z_MSC_GDPS_WindU_IsbL-0750_LatLon0.15_PT174H.grib2 2026-04-30 04:36 1.3M
20260430T00Z_MSC_GDPS_WindU_IsbL-0800_LatLon0.15_PT174H.grib2 2026-04-30 04:36 1.3M
20260430T00Z_MSC_GDPS_WindU_IsbL-0850_LatLon0.15_PT174H.grib2 2026-04-30 04:36 1.4M
20260430T00Z_MSC_GDPS_WindU_IsbL-0875_LatLon0.15_PT174H.grib2 2026-04-30 04:36 1.4M
20260430T00Z_MSC_GDPS_WindU_IsbL-0900_LatLon0.15_PT174H.grib2 2026-04-30 04:36 1.5M
20260430T00Z_MSC_GDPS_WindU_IsbL-0925_LatLon0.15_PT174H.grib2 2026-04-30 04:36 1.5M
20260430T00Z_MSC_GDPS_WindU_IsbL-0950_LatLon0.15_PT174H.grib2 2026-04-30 04:36 1.4M
20260430T00Z_MSC_GDPS_WindU_IsbL-0970_LatLon0.15_PT174H.grib2 2026-04-30 04:36 1.4M
20260430T00Z_MSC_GDPS_WindU_IsbL-0985_LatLon0.15_PT174H.grib2 2026-04-30 04:36 1.4M
20260430T00Z_MSC_GDPS_WindU_IsbL-1000_LatLon0.15_PT174H.grib2 2026-04-30 04:36 1.4M
20260430T00Z_MSC_GDPS_WindU_IsbL-1015_LatLon0.15_PT174H.grib2 2026-04-30 04:36 1.3M
20260430T00Z_MSC_GDPS_WindV_AGL-10m_LatLon0.15_PT174H.grib2 2026-04-30 04:36 1.5M
20260430T00Z_MSC_GDPS_WindV_AGL-120m_LatLon0.15_PT174H.grib2 2026-04-30 04:36 961K
20260430T00Z_MSC_GDPS_WindV_AGL-40m_LatLon0.15_PT174H.grib2 2026-04-30 04:36 956K
20260430T00Z_MSC_GDPS_WindV_AGL-80m_LatLon0.15_PT174H.grib2 2026-04-30 04:36 961K
20260430T00Z_MSC_GDPS_WindV_IsbL-0001_LatLon0.15_PT174H.grib2 2026-04-30 04:36 714K
20260430T00Z_MSC_GDPS_WindV_IsbL-0005_LatLon0.15_PT174H.grib2 2026-04-30 04:36 779K
20260430T00Z_MSC_GDPS_WindV_IsbL-0010_LatLon0.15_PT174H.grib2 2026-04-30 04:36 875K
20260430T00Z_MSC_GDPS_WindV_IsbL-0020_LatLon0.15_PT174H.grib2 2026-04-30 04:36 923K
20260430T00Z_MSC_GDPS_WindV_IsbL-0030_LatLon0.15_PT174H.grib2 2026-04-30 04:36 927K
20260430T00Z_MSC_GDPS_WindV_IsbL-0050_LatLon0.15_PT174H.grib2 2026-04-30 04:36 891K
20260430T00Z_MSC_GDPS_WindV_IsbL-0100_LatLon0.15_PT174H.grib2 2026-04-30 04:36 848K
20260430T00Z_MSC_GDPS_WindV_IsbL-0150_LatLon0.15_PT174H.grib2 2026-04-30 04:36 1.0M
20260430T00Z_MSC_GDPS_WindV_IsbL-0175_LatLon0.15_PT174H.grib2 2026-04-30 04:36 1.0M
20260430T00Z_MSC_GDPS_WindV_IsbL-0200_LatLon0.15_PT174H.grib2 2026-04-30 04:36 1.0M
20260430T00Z_MSC_GDPS_WindV_IsbL-0225_LatLon0.15_PT174H.grib2 2026-04-30 04:36 849K
20260430T00Z_MSC_GDPS_WindV_IsbL-0250_LatLon0.15_PT174H.grib2 2026-04-30 04:36 849K
20260430T00Z_MSC_GDPS_WindV_IsbL-0275_LatLon0.15_PT174H.grib2 2026-04-30 04:36 935K
20260430T00Z_MSC_GDPS_WindV_IsbL-0300_LatLon0.15_PT174H.grib2 2026-04-30 04:36 868K
20260430T00Z_MSC_GDPS_WindV_IsbL-0350_LatLon0.15_PT174H.grib2 2026-04-30 04:36 880K
20260430T00Z_MSC_GDPS_WindV_IsbL-0400_LatLon0.15_PT174H.grib2 2026-04-30 04:36 880K
20260430T00Z_MSC_GDPS_WindV_IsbL-0450_LatLon0.15_PT174H.grib2 2026-04-30 04:36 881K
20260430T00Z_MSC_GDPS_WindV_IsbL-0500_LatLon0.15_PT174H.grib2 2026-04-30 04:36 884K
20260430T00Z_MSC_GDPS_WindV_IsbL-0550_LatLon0.15_PT174H.grib2 2026-04-30 04:36 1.1M
20260430T00Z_MSC_GDPS_WindV_IsbL-0600_LatLon0.15_PT174H.grib2 2026-04-30 04:36 1.1M
20260430T00Z_MSC_GDPS_WindV_IsbL-0650_LatLon0.15_PT174H.grib2 2026-04-30 04:36 1.2M
20260430T00Z_MSC_GDPS_WindV_IsbL-0700_LatLon0.15_PT174H.grib2 2026-04-30 04:36 1.2M
20260430T00Z_MSC_GDPS_WindV_IsbL-0750_LatLon0.15_PT174H.grib2 2026-04-30 04:36 1.3M
20260430T00Z_MSC_GDPS_WindV_IsbL-0800_LatLon0.15_PT174H.grib2 2026-04-30 04:36 1.3M
20260430T00Z_MSC_GDPS_WindV_IsbL-0850_LatLon0.15_PT174H.grib2 2026-04-30 04:36 1.4M
20260430T00Z_MSC_GDPS_WindV_IsbL-0875_LatLon0.15_PT174H.grib2 2026-04-30 04:36 1.4M
20260430T00Z_MSC_GDPS_WindV_IsbL-0900_LatLon0.15_PT174H.grib2 2026-04-30 04:36 1.4M
20260430T00Z_MSC_GDPS_WindV_IsbL-0925_LatLon0.15_PT174H.grib2 2026-04-30 04:36 1.4M
20260430T00Z_MSC_GDPS_WindV_IsbL-0950_LatLon0.15_PT174H.grib2 2026-04-30 04:36 1.4M
20260430T00Z_MSC_GDPS_WindV_IsbL-0970_LatLon0.15_PT174H.grib2 2026-04-30 04:36 1.4M
20260430T00Z_MSC_GDPS_WindV_IsbL-0985_LatLon0.15_PT174H.grib2 2026-04-30 04:36 1.4M
20260430T00Z_MSC_GDPS_WindV_IsbL-1000_LatLon0.15_PT174H.grib2 2026-04-30 04:36 1.4M
20260430T00Z_MSC_GDPS_WindV_IsbL-1015_LatLon0.15_PT174H.grib2 2026-04-30 04:36 1.3M